Temperature
18 19 20 20 20 20 22 24 26 25 25 25 25 25 24 22 21 18 18 17 17 17 17 16 15 15 14 14 14 13 13 12 12 11 11 11 11 11 11 11 11 11 11 11 11 11 11 12 13
18 19 20 21 20 21 23 24 25 25 24 24 24 24 24 22 20 19 18 17 17 17 17 16 15 15 14 14 13 13 13 12 11 11 11 11 11 10 10 10 10 10 11 11 11 11 11 12 12
18 19 20 21 21 22 24 25 25 25 24 24 24 24 24 22 20 19 19 18 17 16 16 16 15 14 14 13 13 13 12 12 11 11 11 11 10 10 10 10 10 11 11 11 11 11 11 12 12
18 19 21 21 22 24 25 25 25 24 24 24 24 24 22 21 21 20 19 18 17 16 16 16 15 15 14 13 13 12 12 11 11 11 10 10 10 11 11 11 11 11 11 11 11 11 12 12 12
19 21 20 21 23 25 26 26 25 24 24 24 24 23 21 21 21 20 19 18 17 16 16 16 15 14 14 13 13 12 12 11 11 11 10 10 10 11 11 11 11 11 11 11 11 11 11 12 12
20 21 21 21 23 25 25 25 25 25 25 25 24 24 20 20 20 20 19 18 17 16 16 16 15 14 14 13 13 12 12 11 11 10 10 10 10 10 11 11 11 11 11 11 11 11 11 11 11
20 20 21 22 23 24 25 25 25 24 25 25 24 24 20 19 20 20 19 18 17 16 16 16 15 14 13 13 13 12 12 11 11 10 10 10 10 10 10 11 11 11 11 10 10 11 11 11 11
20 21 21 22 23 24 25 25 25 25 25 24 24 24 20 20 20 19 18 17 16 16 15 16 15 14 13 13 12 12 11 11 11 11 10 10 10 10 10 10 10 10 10 10 10 10 10 10 10
20 19 21 23 24 24 24 24 24 24 24 24 23 22 21 21 20 19 18 17 16 15 15 15 15 14 13 13 12 12 11 11 11 11 11 10 10 10 9 10 10 10 10 10 10 10 9 9 9
20 19 21 23 24 23 24 24 24 23 23 23 23 22 21 20 20 19 18 18 17 16 15 15 14 14 13 12 12 12 11 11 11 11 10 10 9 9 9 9 9 9 9 9 9 9 9 9 8
21 20 21 23 23 23 23 23 23 23 22 23 23 22 21 20 19 19 18 18 17 16 15 15 14 14 13 12 12 12 11 11 10 10 10 10 9 9 9 9 9 9 9 9 8 8 8 8 8
21 21 22 22 22 22 22 22 23 23 23 23 23 22 21 20 20 19 18 18 17 16 16 15 14 14 13 12 12 12 11 11 11 10 10 9 9 9 9 9 9 8 8 8 8 8 8 8 8
21 21 22 22 21 21 21 21 22 22 22 22 23 22 21 21 20 19 19 18 17 17 16 15 14 14 13 12 12 12 11 11 11 10 10 9 9 9 9 9 9 9 8 8 8 8 8 8 8
21 21 22 22 22 21 21 21 21 22 22 22 22 22 21 21 20 20 19 18 18 17 16 15 14 14 13 13 12 12 11 11 11 10 10 9 9 9 9 9 9 9 9 8 8 8 8 8 8
21 20 20 21 21 21 21 19 20 21 22 22 22 22 21 21 21 20 20 19 18 17 16 15 14 14 13 13 12 12 11 11 11 10 10 10 9 9 9 9 9 9 9 9 8 8 8 8 8
20 19 18 20 21 20 19 18 20 22 22 22 22 22 22 21 21 20 20 19 18 17 16 15 14 13 13 13 12 12 11 11 11 11 10 10 10 9 9 9 9 9 9 9 9 8 8 8 8
19 18 19 20 21 20 19 18 20 22 22 21 22 22 22 22 21 20 20 19 18 18 17 16 15 14 13 13 12 12 11 11 11 11 10 10 10 10 9 9 9 9 9 9 9 8 8 8 8
18 19 20 20 20 20 18 18 19 22 22 22 22 22 22 22 21 21 20 19 18 18 17 16 15 14 13 12 12 11 11 11 11 10 10 10 10 10 9 9 9 9 9 9 8 8 8 8 8
19 19 19 20 21 19 18 18 19 21 21 21 22 22 22 22 21 21 20 19 18 17 17 16 15 14 13 12 12 12 11 11 11 10 10 10 10 10 10 9 9 9 9 9 8 8 8 8 8
19 18 19 20 20 19 18 18 19 20 20 21 21 21 22 21 21 20 19 19 18 17 17 16 15 15 14 13 13 12 12 11 11 11 10 10 10 10 10 10 9 9 9 9 9 8 8 8 7
18 18 18 19 19 19 18 17 19 20 21 21 21 21 21 21 20 20 19 18 17 17 16 16 15 14 14 13 12 12 11 11 11 10 10 10 10 10 10 10 9 9 9 9 9 8 8 7 7
18 19 19 18 17 17 18 16 18 20 20 20 20 21 20 20 20 19 18 17 17 16 15 15 14 14 13 13 12 12 12 11 11 11 10 10 10 10 10 9 9 9 9 9 8 8 8 7 7
18 19 19 18 17 16 17 16 18 20 20 19 19 20 20 19 19 18 17 17 16 15 15 14 14 13 13 13 12 12 12 11 11 11 10 10 10 10 10 10 9 9 9 9 8 8 8 7 7
18 18 18 17 16 14 16 16 17 19 20 20 19 20 19 18 18 17 16 16 15 14 14 14 13 13 13 12 12 12 11 11 10 10 10 10 10 10 10 10 9 9 9 8 8 8 7 7 7
17 16 15 14 13 14 17 17 18 20 20 20 19 19 19 18 17 16 15 15 14 14 13 13 13 13 12 12 12 11 11 11 11 11 10 10 10 10 10 10 9 9 9 8 8 8 7 7 6
16 16 15 15 15 17 17 16 18 20 20 20 20 19 18 17 16 15 14 14 13 13 13 13 13 13 12 12 12 11 11 10 10 10 10 10 10 10 10 9 9 9 9 8 8 7 7 7 6
16 16 17 16 16 16 17 19 20 20 19 19 19 19 18 17 16 15 14 13 13 13 13 13 13 12 12 12 12 11 11 10 10 10 10 10 10 10 10 9 9 9 8 8 7 7 7 6 6
17 17 16 15 14 14 16 17 17 18 18 18 18 18 18 17 16 15 14 14 13 13 13 12 12 12 13 12 12 11 11 11 10 10 10 10 10 10 9 9 9 8 8 8 7 7 6 6 5
16 16 16 16 16 15 15 17 19 18 18 18 18 19 18 17 16 15 14 14 13 13 13 12 12 12 12 12 11 11 11 10 10 10 10 10 10 9 9 9 9 8 8 7 7 6 6 5 5
16 16 16 15 15 15 15 16 20 19 18 18 18 18 18 17 16 15 14 14 13 13 13 12 12 12 12 11 11 11 10 10 10 10 10 10 9 9 9 9 8 8 7 7 6 6 5 5 4
Wind_Speed
14 15 9 3 4 5 7 3 5 7 4 8 7 4 7 10 7 8 6 10 15 16 20 18 17 16 15 15 14 14 14 13 13 13 13 13 13 14 14 14 15 15 15 15 15 15 15 16 16
12 10 4 4 5 6 6 4 6 8 9 9 4 1 5 8 9 9 7 11 15 17 20 18 18 17 16 16 15 14 14 13 13 12 12 13 13 13 13 14 14 14 14 14 14 14 15 15 15
10 9 4 4 6 7 3 7 9 10 9 6 4 2 5 8 11 9 9 12 13 15 19 20 19 17 16 16 15 14 13 13 13 12 12 12 12 12 13 13 13 13 13 13 13 13 13 13 13
6 4 5 6 9 6 1 7 10 10 6 2 3 6 7 7 6 10 13 12 14 13 20 21 20 18 16 16 15 14 13 13 12 12 11 11 11 11 12 12 12 12 12 12 12 12 12 12 12
4 4 6 8 10 2 2 7 9 9 8 6 3 6 8 7 13 14 12 13 13 12 20 21 20 18 17 16 15 14 13 13 12 11 11 10 10 10 10 10 10 10 10 10 10 10 10 10 10
4 5 6 8 9 3 4 5 4 6 8 7 4 4 7 10 13 12 11 12 12 12 18 20 20 18 17 17 15 14 13 13 12 11 10 10 9 9 9 8 8 8 8 8 8 8 8 9 9
5 5 8 9 6 5 5 6 7 6 6 7 4 3 9 10 12 12 11 11 11 13 17 18 18 17 17 17 16 15 14 13 12 11 10 9 8 8 8 7 6 6 6 6 6 6 6 6 6
4 5 9 9 4 5 6 4 3 4 2 5 3 0 9 12 12 12 11 10 11 12 14 16 18 17 17 16 16 16 15 13 12 11 10 9 8 7 7 6 5 4 4 4 4 4 4 3 3
4 5 7 6 2 2 8 4 3 3 3 3 3 6 10 15 13 12 9 8 10 11 12 13 15 17 18 17 17 16 15 14 13 12 11 10 10 10 8 7 5 2 1 1 1 2 4 5 5
5 5 6 4 5 4 5 4 5 4 6 5 6 8 11 12 13 13 12 12 12 12 12 12 12 15 17 17 17 16 15 15 14 14 13 11 8 7 7 8 5 3 3 3 4 5 6 7 5
7 7 6 3 5 6 3 2 2 4 7 7 8 13 13 12 12 13 13 13 12 12 11 11 11 14 14 12 15 13 13 15 14 15 14 10 7 5 7 8 8 7 7 6 5 6 6 4 4
9 8 7 2 3 2 5 5 5 7 8 6 1 9 14 14 14 14 13 13 12 13 12 11 11 10 12 13 12 12 11 11 11 12 12 9 6 4 4 4 5 5 3 2 2 4 4 4 5
10 9 7 3 2 3 6 8 8 10 9 7 3 5 11 13 13 13 12 12 13 14 14 12 12 11 10 10 9 10 10 11 11 11 11 10 6 4 3 3 3 1 0 1 2 4 4 4 5
6 7 7 7 7 7 8 10 10 11 10 9 8 8 10 11 12 12 12 12 13 15 15 12 12 11 10 7 7 7 10 12 12 11 11 11 8 5 3 2 3 2 2 2 3 3 3 3 3
5 7 9 10 10 7 5 10 13 15 11 10 9 10 11 12 12 12 12 11 12 14 14 13 13 12 12 10 8 8 10 12 10 11 12 11 9 7 5 3 2 2 2 1 2 4 4 3 3
7 8 8 8 8 5 4 10 9 5 6 8 9 10 10 11 12 11 11 11 11 13 15 14 12 13 13 10 9 8 10 11 10 12 12 11 10 8 6 3 2 3 2 1 1 1 2 3 3
9 9 11 7 8 7 8 8 9 5 5 9 10 10 10 10 11 11 11 11 11 12 14 15 13 13 13 11 8 8 9 9 10 12 11 11 10 9 6 4 3 5 3 1 0 1 1 2 3
7 10 8 6 8 7 8 10 11 11 10 11 11 11 10 10 11 11 11 12 11 11 13 14 14 12 12 10 8 6 7 6 9 9 10 11 10 9 7 4 4 4 2 1 0 1 1 1 2
8 8 8 5 2 3 8 12 12 12 11 11 10 10 9 9 9 11 11 11 11 10 12 14 14 13 11 10 9 8 7 6 6 6 10 11 10 10 7 4 4 3 2 2 1 2 2 2 2
10 10 10 7 2 3 8 13 14 14 12 10 8 7 7 6 5 8 10 10 10 10 11 13 14 13 12 10 9 7 7 6 5 5 8 11 10 10 8 5 4 4 2 2 2 2 1 1 2
11 11 9 7 5 6 9 10 11 9 9 6 6 6 5 5 4 7 9 9 10 10 11 11 13 13 12 11 8 7 6 5 4 5 5 7 10 10 8 7 5 4 3 3 3 3 2 0 1
10 9 7 6 5 6 5 6 8 8 6 7 7 6 4 4 4 6 9 10 10 9 9 10 11 12 11 12 11 12 8 7 6 6 5 6 9 10 9 8 7 5 3 4 3 3 2 2 0
7 2 3 5 7 9 9 8 7 8 7 7 7 6 5 4 4 5 8 9 9 9 8 8 10 11 11 12 12 11 8 7 6 7 8 7 6 9 9 9 7 5 4 4 4 3 2 2 2
6 3 2 4 4 8 11 10 7 5 5 6 6 6 5 6 6 5 7 9 8 8 8 7 9 10 11 12 12 11 11 10 10 10 9 7 6 5 7 9 7 6 4 4 4 3 3 2 2
8 6 4 6 6 8 7 7 7 3 4 5 5 4 5 7 7 7 8 9 9 9 8 7 9 10 11 11 11 11 11 11 11 10 9 9 6 5 7 6 5 5 5 6 5 3 3 3 3
12 11 8 6 5 3 5 7 6 4 5 6 5 5 5 7 7 8 9 9 9 10 9 9 10 10 11 11 10 10 10 8 8 9 9 8 7 7 8 7 7 7 7 6 5 3 4 3 4
13 14 12 7 7 5 6 6 6 6 5 5 5 6 6 7 8 8 9 9 10 11 10 10 10 10 11 11 10 10 10 9 9 9 8 7 7 7 8 8 7 6 7 6 5 4 4 4 4
10 10 7 7 5 6 8 10 7 9 9 8 7 7 7 8 8 9 8 9 9 10 10 10 10 10 10 10 9 8 9 9 9 9 9 9 9 8 9 8 7 7 6 6 5 4 4 4 4
13 12 9 8 7 5 5 4 3 8 10 9 8 8 7 8 8 8 8 8 9 9 10 9 9 9 10 10 9 8 8 9 9 8 9 9 8 9 9 9 8 7 7 6 5 5 5 5 5
15 16 13 9 8 8 5 5 3 8 9 8 7 7 7 7 7 7 8 8 8 9 9 9 9 9 9 9 8 8 8 9 9 8 9 9 9 9 9 8 8 7 7 6 6 6 6 6 6
Wind_Direction
285 264 248 240 241 234 239 211 111 100 90 68 57 14 45 46 46 108 153 144 126 133 139 147 145 138 132 128 122 116 110 105 99 93 91 88 83 79 77 75 73 70 68 66 64 62 61 60 60
286 272 248 239 240 237 216 164 119 107 93 91 100 167 101 83 91 112 138 127 131 136 142 148 145 139 133 129 126 121 116 110 104 99 96 92 87 84 80 78 75 73 70 68 65 63 61 60 59
268 266 239 227 238 247 185 132 121 101 108 137 147 49 60 97 115 129 138 134 133 137 143 143 146 142 137 133 129 126 121 116 110 106 100 95 91 87 83 79 77 74 72 69 66 63 61 59 58
250 231 244 247 243 245 106 124 119 118 126 176 158 120 84 60 87 116 134 140 136 137 137 144 149 146 142 137 133 131 126 121 116 112 107 101 96 91 87 83 80 77 74 70 67 63 60 57 55
249 237 232 245 253 204 109 98 119 145 160 180 224 118 101 85 101 122 142 144 143 141 138 148 152 152 148 145 140 136 130 127 123 119 114 109 104 98 93 88 83 78 73 69 65 61 58 54 50
236 243 233 229 231 184 135 112 154 189 167 153 184 137 114 129 126 140 146 147 146 139 138 149 155 155 153 149 145 142 138 135 132 128 123 117 113 108 103 95 87 79 73 66 61 57 53 48 43
253 258 260 250 210 169 159 144 192 212 179 158 167 138 127 144 136 142 147 151 143 139 139 149 157 158 157 154 151 148 146 143 140 137 133 129 125 120 113 106 94 82 72 62 54 49 41 35 28
283 273 260 262 235 171 137 144 223 243 188 112 125 212 138 144 140 144 151 151 144 143 146 154 161 162 160 158 156 153 151 150 149 145 144 145 145 142 137 124 106 87 66 52 41 34 19 1 338
278 265 257 244 246 140 120 162 208 352 327 114 110 67 118 134 143 146 151 151 151 156 155 160 164 165 165 163 161 156 157 158 155 155 159 166 176 174 163 137 135 123 85 27 10 339 315 301 283
226 259 276 353 10 28 117 192 194 175 245 200 146 113 124 142 155 160 167 170 168 170 169 166 165 166 167 165 161 165 166 164 169 170 175 193 194 165 151 146 167 196 228 251 256 273 283 284 277
226 250 277 339 16 4 0 270 263 224 236 228 193 158 155 164 171 178 182 181 176 174 175 170 164 165 165 160 165 171 171 171 185 179 182 190 166 156 157 170 188 210 227 237 241 262 270 305 328
243 254 265 291 67 352 297 287 272 248 259 284 307 145 160 174 184 190 191 186 175 174 177 172 162 161 162 162 168 169 167 171 179 177 178 175 165 175 182 187 183 206 208 234 282 284 301 314 317
241 255 262 252 195 236 274 273 270 263 263 277 272 156 174 187 194 196 197 190 174 174 175 175 165 163 163 163 169 171 167 169 171 173 182 174 168 177 183 184 181 200 222 279 285 294 318 326 326
259 260 257 246 231 227 240 257 257 253 248 247 238 207 201 204 202 198 194 193 179 173 173 173 170 167 165 164 165 169 166 165 168 172 183 181 178 173 174 187 179 192 219 261 285 304 327 320 330
294 283 271 245 228 228 244 259 248 248 240 240 237 226 213 211 207 202 192 188 179 171 170 173 175 171 169 170 171 172 165 163 166 171 183 183 179 177 180 184 182 192 206 259 328 343 339 326 332
236 246 250 235 210 177 196 258 263 237 207 232 242 242 226 212 205 199 190 181 177 168 169 173 176 175 173 173 173 170 169 166 168 170 179 182 183 185 184 173 176 166 132 82 24 350 347 339 347
226 234 237 217 187 170 202 256 271 263 229 234 238 240 232 214 201 195 186 177 175 169 167 169 171 176 175 172 171 168 168 164 167 170 173 178 184 186 172 166 161 140 125 117 285 70 45 355 349
221 224 234 219 170 184 223 254 264 264 249 243 239 235 232 218 204 190 182 174 172 169 165 166 169 174 171 168 168 164 162 163 167 166 168 168 173 174 167 156 144 135 131 152 4 33 40 36 6
271 287 287 288 127 191 249 264 267 261 253 247 244 239 234 226 203 178 170 162 162 165 165 167 169 175 171 170 174 172 173 168 163 157 163 165 168 165 158 146 148 137 140 145 101 65 30 26 25
242 258 271 281 200 221 259 269 269 257 249 241 240 246 243 239 206 168 158 156 163 169 169 168 170 174 174 173 172 169 164 163 158 150 159 165 163 159 158 158 151 139 134 116 98 90 50 3 56
227 237 251 273 306 268 263 274 262 253 228 217 220 229 237 227 207 167 156 161 164 171 173 174 172 171 171 163 159 153 142 137 141 154 160 162 158 154 156 161 148 139 141 142 132 119 120 50 356
230 227 240 269 285 280 274 291 274 264 224 200 198 199 202 190 189 171 164 165 169 169 166 169 166 165 167 163 167 165 165 166 169 163 161 160 158 156 159 157 145 142 139 141 142 127 130 127 258
216 192 228 247 260 271 266 267 263 242 222 192 179 163 156 153 166 172 166 163 159 149 151 160 159 163 166 168 170 170 171 169 157 156 159 163 160 157 158 155 147 147 143 141 138 134 143 151 175
174 159 236 255 258 257 236 233 268 235 204 160 141 136 145 149 152 154 144 138 133 132 141 154 159 164 167 170 173 179 177 171 162 162 165 164 158 155 157 155 154 155 146 145 148 155 168 180 191
174 170 205 209 212 238 207 214 246 221 120 116 119 122 134 141 146 149 142 144 140 142 152 162 163 166 169 172 179 185 181 175 169 166 166 162 160 162 166 156 161 158 154 154 154 164 183 192 200
189 194 205 207 214 208 182 220 239 189 135 125 136 143 141 141 145 153 156 156 151 156 165 174 174 172 173 177 184 182 178 174 169 166 164 166 167 167 162 163 167 162 159 160 163 175 194 196 207
188 209 232 274 297 293 249 231 218 182 152 149 158 154 150 147 147 155 158 161 159 166 175 182 179 174 175 178 180 179 177 170 165 163 161 162 158 157 156 162 164 163 163 167 169 190 202 199 212
209 190 196 214 222 240 246 239 226 183 179 176 170 161 151 144 150 158 164 168 165 168 176 182 179 175 174 176 180 178 171 164 160 159 160 157 152 150 156 165 167 166 169 175 182 196 205 205 220
199 207 199 200 222 219 243 247 201 164 157 157 156 149 147 154 159 162 167 168 163 164 171 178 176 169 172 176 173 167 164 159 156 157 159 155 151 155 163 169 169 173 179 184 190 202 208 216 229
204 207 202 200 208 214 242 266 120 118 124 131 136 141 144 147 154 158 162 162 163 168 173 176 173 169 172 170 165 163 159 156 157 161 160 155 156 162 166 168 172 179 185 188 196 209 213 219 232
Height
1511 1514 1516 1519 1520 1520 1515 1503 1498 1503 1505 1508 1511 1512 1512 1516 1522 1533 1531 1530 1530 1531 1533 1535 1537 1539 1541 1542 1543 1544 1545 1545 1546 1546 1546 1547 1547 1547 1547 1547 1546 1546 1547 1547 1546 1546 1546 1546 1546
1511 1514 1518 1518 1519 1522 1512 1500 1500 1503 1507 1511 1513 1513 1513 1519 1522 1526 1528 1530 1531 1531 1533 1535 1537 1539 1541 1542 1544 1545 1545 1546 1547 1547 1548 1548 1548 1548 1548 1548 1548 1548 1548 1548 1548 1547 1547 1547 1547
1512 1514 1517 1514 1514 1513 1504 1497 1500 1505 1509 1512 1513 1514 1516 1521 1524 1526 1528 1529 1531 1532 1533 1535 1537 1539 1541 1543 1544 1545 1546 1547 1547 1548 1549 1549 1549 1549 1549 1549 1549 1549 1549 1549 1549 1549 1549 1549 1549
1514 1516 1515 1512 1509 1500 1496 1496 1499 1505 1510 1512 1512 1515 1518 1522 1524 1525 1527 1529 1531 1532 1534 1536 1538 1539 1541 1543 1544 1545 1546 1547 1548 1549 1549 1549 1550 1550 1550 1550 1550 1551 1551 1551 1550 1550 1550 1550 1550
1514 1514 1513 1512 1504 1495 1494 1496 1500 1505 1509 1511 1512 1513 1518 1522 1523 1525 1527 1529 1531 1532 1533 1536 1537 1539 1541 1543 1544 1545 1546 1547 1548 1549 1550 1550 1550 1551 1551 1551 1552 1552 1552 1552 1552 1552 1552 1552 1552
1514 1510 1513 1513 1502 1495 1495 1499 1502 1504 1506 1509 1511 1513 1519 1521 1522 1525 1527 1529 1531 1532 1533 1535 1537 1539 1541 1542 1544 1545 1546 1547 1548 1549 1550 1551 1551 1551 1552 1552 1553 1553 1553 1553 1553 1553 1553 1553 1553
1513 1510 1509 1502 1499 1497 1496 1499 1502 1503 1505 1507 1510 1512 1517 1520 1522 1524 1527 1529 1531 1532 1532 1534 1536 1538 1540 1542 1543 1545 1546 1547 1548 1549 1550 1551 1551 1552 1553 1553 1553 1554 1554 1554 1554 1554 1554 1554 1553
1511 1508 1505 1500 1497 1497 1496 1500 1502 1503 1504 1506 1509 1511 1515 1518 1520 1523 1526 1529 1530 1531 1532 1533 1535 1537 1539 1541 1543 1544 1546 1547 1548 1549 1550 1551 1552 1553 1553 1553 1554 1554 1554 1554 1554 1554 1554 1554 1554
1511 1511 1506 1498 1496 1495 1496 1500 1503 1504 1505 1507 1509 1512 1514 1516 1518 1521 1524 1527 1529 1530 1531 1532 1534 1536 1538 1540 1542 1543 1545 1546 1547 1549 1550 1551 1552 1553 1554 1554 1554 1555 1555 1555 1555 1554 1554 1554 1553
1509 1511 1502 1494 1493 1495 1497 1500 1502 1505 1506 1507 1509 1511 1513 1514 1517 1519 1521 1523 1525 1527 1530 1531 1533 1535 1537 1538 1540 1542 1544 1545 1547 1548 1550 1551 1552 1554 1554 1554 1555 1555 1555 1555 1554 1554 1554 1553 1553
1505 1504 1499 1497 1497 1498 1499 1501 1502 1504 1505 1505 1506 1507 1509 1512 1514 1516 1518 1520 1522 1525 1527 1530 1531 1533 1535 1537 1539 1541 1542 1544 1546 1548 1549 1551 1552 1554 1554 1554 1554 1554 1554 1554 1554 1554 1554 1554 1553
1502 1500 1498 1498 1499 1501 1502 1502 1502 1503 1503 1503 1504 1504 1506 1508 1510 1513 1515 1517 1520 1522 1524 1527 1529 1531 1533 1535 1537 1539 1541 1543 1545 1547 1549 1550 1551 1553 1553 1554 1554 1554 1554 1554 1554 1554 1553 1553 1552
1500 1498 1498 1498 1500 1502 1503 1502 1502 1501 1501 1501 1502 1503 1505 1506 1508 1510 1512 1515 1516 1518 1521 1524 1526 1528 1531 1533 1536 1538 1540 1542 1544 1545 1547 1549 1550 1551 1552 1553 1553 1553 1553 1553 1553 1553 1552 1552 1551
1497 1496 1496 1497 1498 1499 1500 1500 1500 1497 1498 1498 1499 1500 1501 1503 1504 1506 1508 1511 1513 1514 1517 1520 1522 1525 1528 1530 1533 1536 1538 1540 1542 1544 1546 1547 1548 1550 1551 1551 1552 1552 1552 1552 1552 1552 1551 1550 1549
1497 1497 1496 1494 1494 1496 1498 1498 1495 1492 1493 1494 1494 1495 1496 1498 1500 1501 1503 1506 1509 1510 1513 1516 1519 1522 1524 1527 1530 1533 1536 1538 1540 1541 1544 1545 1547 1548 1549 1550 1550 1551 1551 1550 1550 1550 1549 1548 1547
1496 1499 1500 1490 1490 1492 1500 1501 1490 1487 1488 1489 1490 1491 1491 1492 1494 1496 1499 1501 1504 1506 1508 1511 1515 1518 1521 1524 1527 1530 1533 1535 1537 1539 1541 1543 1545 1546 1547 1548 1548 1549 1549 1549 1548 1548 1547 1546 1545
1496 1499 1496 1489 1486 1488 1495 1495 1487 1485 1485 1485 1485 1486 1486 1487 1488 1490 1493 1496 1499 1502 1504 1507 1510 1514 1517 1521 1524 1527 1530 1533 1535 1537 1539 1540 1542 1544 1545 1546 1546 1547 1547 1547 1547 1546 1545 1544 1543
1494 1492 1488 1486 1484 1486 1491 1490 1484 1482 1481 1480 1480 1480 1480 1481 1482 1484 1487 1490 1494 1497 1500 1502 1505 1509 1513 1517 1521 1524 1527 1530 1532 1534 1536 1538 1539 1541 1543 1544 1544 1545 1545 1545 1545 1544 1543 1542 1541
1485 1487 1487 1482 1480 1484 1488 1485 1480 1476 1475 1474 1473 1474 1474 1475 1477 1479 1481 1485 1488 1492 1495 1497 1500 1505 1509 1512 1515 1519 1522 1525 1528 1531 1533 1535 1537 1538 1540 1541 1542 1542 1542 1542 1542 1542 1541 1540 1539
1484 1488 1488 1483 1480 1483 1485 1481 1473 1469 1467 1467 1467 1468 1469 1471 1472 1474 1476 1479 1483 1486 1490 1493 1496 1499 1503 1507 1511 1515 1518 1522 1525 1527 1530 1532 1534 1536 1537 1538 1539 1540 1540 1540 1540 1540 1539 1538 1537
1482 1486 1487 1486 1482 1480 1484 1481 1469 1461 1460 1461 1462 1463 1465 1467 1468 1470 1472 1474 1478 1481 1485 1488 1491 1495 1499 1503 1507 1512 1515 1518 1521 1523 1526 1529 1531 1533 1534 1535 1536 1537 1537 1537 1537 1537 1537 1536 1535
1482 1477 1480 1483 1490 1490 1483 1491 1471 1460 1458 1457 1458 1460 1461 1463 1465 1466 1468 1470 1473 1477 1481 1484 1488 1491 1495 1499 1502 1505 1508 1511 1515 1519 1522 1525 1527 1529 1531 1533 1533 1534 1535 1535 1535 1535 1534 1534 1533
1474 1474 1478 1482 1488 1492 1485 1489 1473 1457 1457 1455 1455 1457 1458 1460 1461 1463 1465 1467 1470 1473 1476 1480 1484 1487 1491 1494 1498 1501 1505 1509 1512 1515 1519 1521 1524 1526 1528 1529 1530 1531 1532 1532 1532 1532 1532 1531 1531
1470 1476 1480 1483 1490 1498 1482 1485 1473 1457 1451 1450 1452 1454 1456 1457 1458 1460 1462 1464 1466 1469 1473 1476 1480 1483 1487 1490 1494 1498 1501 1505 1508 1511 1514 1517 1520 1522 1524 1526 1527 1528 1528 1529 1529 1529 1529 1528 1528
1469 1482 1495 1498 1501 1492 1469 1473 1465 1447 1445 1447 1450 1452 1454 1455 1456 1457 1459 1461 1463 1465 1469 1473 1476 1480 1483 1487 1490 1494 1498 1501 1504 1507 1510 1513 1515 1518 1520 1522 1523 1524 1525 1525 1526 1526 1525 1525 1524
1466 1474 1486 1490 1486 1474 1469 1470 1455 1442 1443 1445 1448 1450 1452 1453 1454 1455 1457 1458 1460 1462 1466 1469 1473 1476 1480 1483 1487 1491 1494 1498 1501 1504 1507 1509 1512 1514 1516 1518 1519 1520 1521 1522 1522 1522 1522 1521 1521
1462 1467 1465 1473 1472 1478 1467 1453 1444 1440 1441 1444 1446 1448 1450 1451 1452 1454 1455 1456 1458 1460 1463 1466 1470 1473 1476 1480 1484 1487 1491 1494 1497 1500 1503 1506 1508 1510 1512 1514 1516 1517 1517 1518 1518 1518 1518 1517 1517
1450 1456 1466 1473 1482 1485 1468 1459 1452 1443 1443 1443 1445 1446 1448 1450 1451 1452 1453 1455 1456 1458 1461 1464 1468 1470 1473 1477 1480 1484 1487 1491 1494 1497 1499 1502 1504 1506 1508 1510 1512 1513 1513 1514 1514 1514 1513 1513 1512
1450 1453 1455 1462 1464 1473 1471 1457 1431 1433 1435 1439 1442 1444 1446 1448 1449 1450 1452 1453 1455 1457 1459 1462 1465 1468 1471 1474 1477 1480 1484 1487 1490 1493 1496 1498 1500 1502 1504 1506 1507 1508 1509 1510 1510 1509 1509 1508 1507
1439 1442 1448 1459 1459 1457 1464 1456 1428 1430 1432 1436 1440 1442 1444 1446 1447 1449 1450 1452 1453 1455 1457 1460 1463 1465 1468 1471 1474 1477 1480 1483 1486 1489 1491 1494 1496 1498 1500 1502 1503 1504 1505 1505 1505 1504 1504 1503 1502